Notices

What's New in latest Release from April 7th, 2021:

- Updated Glossary, including Speed of Maximum Gust, and Total Hourly Precipitation

- Updated national and regional climate services offices contacts and prices information

- Addition of station inventory lists for 1981-2010, 1971-2000, and 1961-1990 Normals.

If you haven't already, please take our survey and provide feedback about our website: https://eccc.sondage-survey.ca/f/LanguageSelection.aspx?s=442ca660-fcf1-47c0-95a9-59707d6fd709

Hourly Data Report for November 10, 2006

TORONTO CITY
ONTARIO

43°40'00.000" N
79°24'00.000" W
112.50 m
6158355
71508
XTO

Download Data

Hourly Data (November 2006)
Hourly Data Report for November 10, 2006
TIME
LST
Temp Definition
°C
Dew Point Definition
°C
Rel Hum Definition
%
Precip. Amount Definition
mm

Wind Dir Definition
10's deg

Wind Spd Definition
km/h
Visibility Definition
km
Stn Press Definition
kPa
Hmdx Definition


Wind Chill Definition


Weather Definition


00:00 6.4 1.8 72   LegendMM LegendMM   99.70     LegendNANA
01:00 6.0 1.5 73   LegendMM LegendMM   99.79     LegendNANA
02:00 6.3 1.8 73   LegendMM LegendMM   99.91     LegendNANA
03:00 6.8 2.1 72   LegendMM LegendMM   100.01     LegendNANA
04:00 6.9 2.5 74   LegendMM LegendMM   100.06     LegendNANA
05:00 6.8 2.7 75   LegendMM LegendMM   100.15     LegendNANA
06:00 6.4 2.6 77   LegendMM LegendMM   100.23     LegendNANA
07:00 6.4 2.7 77   LegendMM LegendMM   100.33     LegendNANA
08:00 6.4 2.8 78   LegendMM LegendMM   100.40     LegendNANA
09:00 6.8 2.8 76   LegendMM LegendMM   100.44     LegendNANA
10:00 7.0 3.2 77   LegendMM LegendMM   100.44     LegendNANA
11:00 7.1 3.0 75   LegendMM LegendMM   100.47     LegendNANA
12:00 7.5 3.2 74   LegendMM LegendMM   100.40     LegendNANA
13:00 7.9 3.5 74   LegendMM LegendMM   100.38     LegendNANA
14:00 8.0 3.4 73   LegendMM LegendMM   100.32     LegendNANA
15:00 7.4 2.7 72   LegendMM LegendMM   100.32     LegendNANA
16:00 7.0 2.8 75   LegendMM LegendMM   100.32     LegendNANA
17:00 6.9 2.8 75   LegendMM LegendMM   100.28     LegendNANA
18:00 7.0 3.1 76   LegendMM LegendMM   100.24     LegendNANA
19:00 6.5 2.9 78   LegendMM LegendMM   100.18     LegendNANA
20:00 6.7 3.0 77   LegendMM LegendMM   100.09     LegendNANA
21:00 6.5 3.0 78   LegendMM LegendMM   100.06     LegendNANA
22:00 6.1 2.9 80   LegendMM LegendMM   100.01     LegendNANA
23:00 6.2 2.9 79   LegendMM LegendMM   99.82     LegendNANA

Notes on Data Quality.

Legend

  • E = Estimated
  • M = Missing
  • NA = Not Available*
  • [empty] = Indicates an unobserved value
Date modified: